Time,TemperatureF,DewpointF,PressureIn,WindDirection,WindDirectionDegrees,WindSpeedMPH,WindSpeedGustMPH,Humidity,HourlyPrecipIn,Conditions,Clouds,dailyrainin,SoftwareType,DateUTC
2013-05-09 00:09:00,44.9,43.0,30.02,NNW,329,1.0,4.0,91,0.00,,,0.00,weatherlink.com 1.10,2013-05-09 06:09:00,
2013-05-09 00:24:00,45.0,43.0,30.01,WNW,303,0.0,8.0,91,0.00,,,0.00,weatherlink.com 1.10,2013-05-09 06:24:00,
2013-05-09 00:39:00,45.1,42.0,30.02,WNW,294,3.0,7.0,90,0.00,,,0.00,weatherlink.com 1.10,2013-05-09 06:39:00,
2013-05-09 00:54:00,45.2,43.0,30.02,NW,310,0.0,3.0,90,0.00,,,0.00,weatherlink.com 1.10,2013-05-09 06:54:00,
2013-05-09 01:09:00,45.3,43.0,30.02,WNW,301,0.0,2.0,90,0.00,,,0.00,weatherlink.com 1.10,2013-05-09 07:09:00,
2013-05-09 01:24:00,45.3,43.0,30.01,WNW,301,0.0,0.0,91,0.00,,,0.00,weatherlink.com 1.10,2013-05-09 07:24:00,
2013-05-09 01:39:00,45.3,43.0,30.01,WNW,301,0.0,0.0,91,0.00,,,0.00,weatherlink.com 1.10,2013-05-09 07:39:00,
2013-05-09 01:54:00,45.2,43.0,30.01,WNW,301,0.0,1.0,91,0.00,,,0.00,weatherlink.com 1.10,2013-05-09 07:54:00,
2013-05-09 02:09:00,45.1,43.0,30.01,West,277,1.0,2.0,91,0.00,,,0.00,weatherlink.com 1.10,2013-05-09 08:09:00,
2013-05-09 02:24:00,45.0,43.0,30.01,West,265,0.0,2.0,91,0.00,,,0.00,weatherlink.com 1.10,2013-05-09 08:24:00,
2013-05-09 02:39:00,44.8,42.0,30.01,SSW,200,0.0,4.0,91,0.00,,,0.00,weatherlink.com 1.10,2013-05-09 08:39:00,
2013-05-09 02:54:00,44.7,42.0,30.01,South,177,0.0,3.0,91,0.00,,,0.00,weatherlink.com 1.10,2013-05-09 08:54:00,
2013-05-09 03:09:00,44.6,42.0,30.01,WSW,248,0.0,3.0,90,0.00,,,0.00,weatherlink.com 1.10,2013-05-09 09:09:00,
2013-05-09 03:24:00,44.2,41.0,30.01,WSW,247,0.0,2.0,89,0.00,,,0.00,weatherlink.com 1.10,2013-05-09 09:24:00,
2013-05-09 03:39:00,43.9,41.0,30.01,WSW,246,0.0,3.0,88,0.00,,,0.00,weatherlink.com 1.10,2013-05-09 09:39:00,
2013-05-09 03:54:00,43.8,41.0,30.01,WSW,246,0.0,1.0,89,0.00,,,0.00,weatherlink.com 1.10,2013-05-09 09:54:00,
2013-05-09 04:09:00,43.6,41.0,30.02,WSW,246,0.0,1.0,90,0.00,,,0.00,weatherlink.com 1.10,2013-05-09 10:09:00,
2013-05-09 04:24:00,43.7,41.0,30.02,WSW,246,0.0,1.0,90,0.00,,,0.00,weatherlink.com 1.10,2013-05-09 10:24:00,
2013-05-09 04:39:00,43.7,41.0,30.02,WSW,246,0.0,0.0,90,0.00,,,0.00,weatherlink.com 1.10,2013-05-09 10:39:00,
2013-05-09 04:54:00,43.7,41.0,30.02,WSW,246,0.0,0.0,91,0.00,,,0.00,weatherlink.com 1.10,2013-05-09 10:54:00,
2013-05-09 05:09:00,43.6,41.0,30.03,WSW,246,0.0,0.0,91,0.00,,,0.00,weatherlink.com 1.10,2013-05-09 11:09:00,
2013-05-09 05:24:00,43.7,42.0,30.03,WSW,246,0.0,0.0,92,0.00,,,0.00,weatherlink.com 1.10,2013-05-09 11:24:00,
2013-05-09 05:39:00,43.9,42.0,30.02,WSW,246,0.0,2.0,92,0.00,,,0.00,weatherlink.com 1.10,2013-05-09 11:39:00,
2013-05-09 05:54:00,44.4,42.0,30.03,WNW,283,0.0,2.0,92,0.00,,,0.00,weatherlink.com 1.10,2013-05-09 11:54:00,
2013-05-09 06:09:00,45.2,43.0,30.04,NNE,24,0.0,3.0,91,0.00,,,0.00,weatherlink.com 1.10,2013-05-09 12:09:00,
2013-05-09 06:24:00,45.4,42.0,30.05,NE,39,1.0,4.0,88,0.00,,,0.00,weatherlink.com 1.10,2013-05-09 12:24:00,
2013-05-09 06:39:00,45.4,42.0,30.05,NE,34,0.0,3.0,88,0.00,,,0.00,weatherlink.com 1.10,2013-05-09 12:39:00,
2013-05-09 06:54:00,45.4,42.0,30.06,NNW,344,1.0,4.0,88,0.00,,,0.00,weatherlink.com 1.10,2013-05-09 12:54:00,
2013-05-09 07:09:00,45.5,42.0,30.06,NW,325,1.0,4.0,88,0.00,,,0.00,weatherlink.com 1.10,2013-05-09 13:09:00,
2013-05-09 07:24:00,45.8,42.0,30.07,NNW,337,0.0,3.0,87,0.00,,,0.00,weatherlink.com 1.10,2013-05-09 13:24:00,
2013-05-09 07:39:00,46.4,43.0,30.07,NW,304,2.0,5.0,86,0.00,,,0.00,weatherlink.com 1.10,2013-05-09 13:39:00,
2013-05-09 07:54:00,46.9,43.0,30.07,North,360,5.0,6.0,85,0.00,,,0.00,weatherlink.com 1.10,2013-05-09 13:54:00,
2013-05-09 08:09:00,47.4,43.0,30.08,North,355,3.0,5.0,84,0.00,,,0.00,weatherlink.com 1.10,2013-05-09 14:09:00,
2013-05-09 08:24:00,47.8,43.0,30.09,NE,34,1.0,7.0,83,0.00,,,0.00,weatherlink.com 1.10,2013-05-09 14:24:00,
2013-05-09 08:39:00,48.7,43.0,30.09,NW,323,2.0,7.0,81,0.00,,,0.00,weatherlink.com 1.10,2013-05-09 14:39:00,
2013-05-09 08:55:00,49.7,43.0,30.09,North,360,1.0,6.0,79,0.00,,,0.00,weatherlink.com 1.10,2013-05-09 14:55:00,
2013-05-09 09:10:00,49.4,43.0,30.10,North,360,2.0,7.0,79,0.00,,,0.00,weatherlink.com 1.10,2013-05-09 15:10:00,
2013-05-09 09:25:00,50.3,42.0,30.09,NE,34,4.0,7.0,74,0.00,,,0.00,weatherlink.com 1.10,2013-05-09 15:25:00,
2013-05-09 09:40:00,50.8,42.0,30.09,North,5,2.0,6.0,73,0.00,,,0.00,weatherlink.com 1.10,2013-05-09 15:40:00,
2013-05-09 09:55:00,50.8,42.0,30.09,NNE,30,1.0,6.0,73,0.00,,,0.00,weatherlink.com 1.10,2013-05-09 15:55:00,
2013-05-09 10:10:00,50.8,42.0,30.10,NNE,24,1.0,9.0,71,0.00,,,0.00,weatherlink.com 1.10,2013-05-09 16:10:00,
2013-05-09 10:25:00,49.6,43.0,30.11,NE,53,0.0,5.0,79,0.00,,,0.00,weatherlink.com 1.10,2013-05-09 16:25:00,
2013-05-09 10:40:00,50.0,43.0,30.10,NE,43,0.0,3.0,78,0.00,,,0.00,weatherlink.com 1.10,2013-05-09 16:40:00,
2013-05-09 10:55:00,50.0,43.0,30.11,NE,36,0.0,8.0,78,0.00,,,0.00,weatherlink.com 1.10,2013-05-09 16:55:00,
2013-05-09 11:10:00,51.2,43.0,30.11,North,5,4.0,7.0,73,0.00,,,0.00,weatherlink.com 1.10,2013-05-09 17:10:00,
2013-05-09 11:25:00,52.2,42.0,30.11,NNW,327,5.0,7.0,69,0.00,,,0.00,weatherlink.com 1.10,2013-05-09 17:25:00,
2013-05-09 11:40:00,52.5,43.0,30.11,North,5,2.0,7.0,69,0.00,,,0.00,weatherlink.com 1.10,2013-05-09 17:40:00,
2013-05-09 11:55:00,53.8,41.0,30.10,NE,38,5.0,5.0,63,0.00,,,0.00,weatherlink.com 1.10,2013-05-09 17:55:00,
2013-05-09 12:25:00,53.0,41.0,30.10,NNE,32,3.0,8.0,65,0.00,,,0.00,weatherlink.com 1.10,2013-05-09 18:25:00,
2013-05-09 12:40:00,50.3,41.0,30.10,West,268,0.0,5.0,71,0.00,,,0.00,weatherlink.com 1.10,2013-05-09 18:40:00,
2013-05-09 12:55:00,50.7,43.0,30.09,SW,223,1.0,1.0,76,0.00,,,0.00,weatherlink.com 1.10,2013-05-09 18:55:00,
2013-05-09 13:10:00,51.9,42.0,30.10,NE,34,8.0,11.0,69,0.00,,,0.00,weatherlink.com 1.10,2013-05-09 19:10:00,
2013-05-09 13:25:00,46.7,42.0,30.10,NNW,347,0.0,4.0,82,0.00,,,0.00,weatherlink.com 1.10,2013-05-09 19:25:00,
2013-05-09 13:40:00,47.7,43.0,30.10,NW,306,0.0,3.0,85,0.00,,,0.00,weatherlink.com 1.10,2013-05-09 19:40:00,
2013-05-09 13:55:00,49.0,44.0,30.10,West,279,1.0,4.0,83,0.00,,,0.00,weatherlink.com 1.10,2013-05-09 19:55:00,
2013-05-09 14:10:00,50.1,45.0,30.09,WNW,299,1.0,5.0,81,0.00,,,0.00,weatherlink.com 1.10,2013-05-09 20:10:00,
2013-05-09 14:25:00,53.1,44.0,30.09,West,276,0.0,4.0,71,0.00,,,0.00,weatherlink.com 1.10,2013-05-09 20:25:00,
2013-05-09 14:40:00,55.1,43.0,30.09,NW,317,1.0,5.0,65,0.00,,,0.00,weatherlink.com 1.10,2013-05-09 20:40:00,
2013-05-09 14:55:00,49.3,42.0,30.12,NE,44,3.0,15.0,75,0.00,,,0.00,weatherlink.com 1.10,2013-05-09 20:55:00,
2013-05-09 15:10:00,46.4,42.0,30.12,NW,325,3.0,12.0,85,0.00,,,0.00,weatherlink.com 1.10,2013-05-09 21:10:00,
2013-05-09 15:25:00,45.5,42.0,30.11,NW,304,9.0,14.0,86,0.00,,,0.00,weatherlink.com 1.10,2013-05-09 21:25:00,
2013-05-09 15:40:00,45.6,42.0,30.13,WNW,298,6.0,13.0,87,0.00,,,0.00,weatherlink.com 1.10,2013-05-09 21:40:00,
2013-05-09 15:55:00,46.2,42.0,30.14,NW,321,2.0,10.0,85,0.00,,,0.00,weatherlink.com 1.10,2013-05-09 21:55:00,
2013-05-09 16:10:00,46.8,41.0,30.14,WNW,290,4.0,6.0,81,0.00,,,0.00,weatherlink.com 1.10,2013-05-09 22:10:00,
2013-05-09 16:25:00,46.7,42.0,30.12,West,268,10.0,13.0,82,0.00,,,0.00,weatherlink.com 1.10,2013-05-09 22:25:00,
2013-05-09 16:40:00,46.6,41.0,30.11,West,265,2.0,12.0,81,0.00,,,0.00,weatherlink.com 1.10,2013-05-09 22:40:00,
2013-05-09 16:55:00,47.6,42.0,30.11,WSW,252,2.0,7.0,80,0.00,,,0.00,weatherlink.com 1.10,2013-05-09 22:55:00,
2013-05-09 17:10:00,48.4,42.0,30.11,West,265,1.0,4.0,78,0.00,,,0.00,weatherlink.com 1.10,2013-05-09 23:10:00,
2013-05-09 17:25:00,49.8,43.0,30.10,WNW,288,1.0,4.0,76,0.00,,,0.00,weatherlink.com 1.10,2013-05-09 23:25:00,
2013-05-09 17:40:00,51.0,41.0,30.10,West,275,0.0,6.0,69,0.00,,,0.00,weatherlink.com 1.10,2013-05-09 23:40:00,
2013-05-09 17:55:00,52.2,41.0,30.10,WNW,290,0.0,6.0,67,0.00,,,0.00,weatherlink.com 1.10,2013-05-09 23:55:00,
2013-05-09 18:09:00,53.2,41.0,30.09,WSW,250,2.0,5.0,63,0.00,,,0.00,weatherlink.com 1.10,2013-05-10 00:09:00,
2013-05-09 18:25:00,54.0,41.0,30.10,West,270,0.0,3.0,62,0.00,,,0.00,weatherlink.com 1.10,2013-05-10 00:25:00,
2013-05-09 18:40:00,53.9,41.0,30.09,WSW,256,5.0,5.0,61,0.00,,,0.00,weatherlink.com 1.10,2013-05-10 00:40:00,
2013-05-09 18:55:00,54.1,40.0,30.09,West,273,0.0,4.0,59,0.00,,,0.00,weatherlink.com 1.10,2013-05-10 00:55:00,
2013-05-09 19:10:00,54.2,39.0,30.10,West,273,0.0,1.0,58,0.00,,,0.00,weatherlink.com 1.10,2013-05-10 01:10:00,
2013-05-09 19:25:00,53.4,41.0,30.10,SW,226,1.0,1.0,63,0.00,,,0.00,weatherlink.com 1.10,2013-05-10 01:25:00,
2013-05-09 19:40:00,51.9,41.0,30.10,South,184,0.0,2.0,66,0.00,,,0.00,weatherlink.com 1.10,2013-05-10 01:40:00,
2013-05-09 19:55:00,50.5,40.0,30.11,SSW,204,3.0,4.0,68,0.00,,,0.00,weatherlink.com 1.10,2013-05-10 01:55:00,
2013-05-09 20:10:00,49.2,41.0,30.10,SSW,197,2.0,4.0,73,0.00,,,0.00,weatherlink.com 1.10,2013-05-10 02:10:00,
2013-05-09 20:25:00,48.3,41.0,30.11,SSW,199,2.0,3.0,75,0.00,,,0.00,weatherlink.com 1.10,2013-05-10 02:25:00,
2013-05-09 20:40:00,47.7,41.0,30.11,SSW,199,0.0,2.0,77,0.00,,,0.00,weatherlink.com 1.10,2013-05-10 02:40:00,
2013-05-09 20:55:00,47.0,40.0,30.12,SSW,199,0.0,1.0,78,0.00,,,0.00,weatherlink.com 1.10,2013-05-10 02:55:00,
2013-05-09 21:10:00,46.3,40.0,30.12,SSW,199,0.0,1.0,79,0.00,,,0.00,weatherlink.com 1.10,2013-05-10 03:10:00,
2013-05-09 21:25:00,45.8,40.0,30.12,SSW,194,0.0,3.0,80,0.00,,,0.00,weatherlink.com 1.10,2013-05-10 03:25:00,
2013-05-09 21:40:00,45.3,40.0,30.12,SSW,194,0.0,1.0,81,0.00,,,0.00,weatherlink.com 1.10,2013-05-10 03:40:00,
2013-05-09 21:55:00,44.6,39.0,30.14,SSW,194,0.0,2.0,81,0.00,,,0.00,weatherlink.com 1.10,2013-05-10 03:55:00,
2013-05-09 22:10:00,44.3,39.0,30.14,SSW,194,0.0,1.0,81,0.00,,,0.00,weatherlink.com 1.10,2013-05-10 04:10:00,
2013-05-09 22:25:00,43.9,38.0,30.14,SSW,194,0.0,1.0,81,0.00,,,0.00,weatherlink.com 1.10,2013-05-10 04:25:00,
2013-05-09 22:40:00,43.4,38.0,30.14,SSW,194,0.0,1.0,81,0.00,,,0.00,weatherlink.com 1.10,2013-05-10 04:40:00,
2013-05-09 22:55:00,43.1,38.0,30.13,SSW,194,0.0,1.0,81,0.00,,,0.00,weatherlink.com 1.10,2013-05-10 04:55:00,
2013-05-09 23:10:00,43.1,37.0,30.13,SSW,196,0.0,2.0,80,0.00,,,0.00,weatherlink.com 1.10,2013-05-10 05:10:00,
2013-05-09 23:25:00,42.7,37.0,30.13,SSW,196,0.0,0.0,81,0.00,,,0.00,weatherlink.com 1.10,2013-05-10 05:25:00,
2013-05-09 23:41:00,42.4,37.0,30.13,SSW,197,1.0,2.0,80,0.00,,,0.00,weatherlink.com 1.10,2013-05-10 05:41:00,
2013-05-09 23:55:00,42.7,37.0,30.13,SW,221,0.0,2.0,79,0.00,,,0.00,weatherlink.com 1.10,2013-05-10 05:55:00,